When you browse on this site, cookies collect data to enhance your experience and personalize the content and advertising you see.
Visit our Privacy Policy to learn more. By continuing to use the site, you agree to this use of cookies and data.
  • In Spain
  • List of Countries
  • For 7 days
  • Water Temperature
  • Satellite Maps
  • Weather Map
  • Weather Widgets
  • user-avatar
    Login

    Hourly Weather Benito Juarez

    Today, 18 February, Monday

    Time Temperature Precipitation Wind Pressure Humidity
    00:00 +15°C° 0 mm 2 mps 583 mmHg 42%
    01:00 +14°C° 0 mm 2 mps 583 mmHg 43%
    02:00 +14°C° 0 mm 2 mps 583 mmHg 44%
    03:00 +13°C° 0 mm 2 mps 583 mmHg 46%
    04:00 +13°C° 0 mm 2 mps 582 mmHg 48%
    05:00 +12°C° 0 mm 2 mps 582 mmHg 51%
    06:00 +14°C° 0 mm 1 mps 584 mmHg 49%
    07:00 +16°C° 0 mm 1 mps 585 mmHg 46%
    08:00 +19°C° 0 mm 1 mps 586 mmHg 44%
    09:00 +20°C° 0 mm 1 mps 587 mmHg 44%
    10:00 +22°C° 0 mm 1 mps 588 mmHg 43%
    11:00 +23°C° 0 mm 2 mps 588 mmHg 43%
    12:00 +23°C° 0 mm 2 mps 587 mmHg 46%
    13:00 +23°C° 0 mm 2 mps 587 mmHg 49%
    14:00 +21°C° 0 mm 2 mps 586 mmHg 53%
    15:00 +20°C° 0 mm 2 mps 585 mmHg 58%
    16:00 +18°C° 0 mm 2 mps 585 mmHg 64%
    17:00 +17°C° 0 mm 2 mps 584 mmHg 69%
    18:00 +16°C° 0 mm 1 mps 584 mmHg 73%
    19:00 +15°C° 0 mm 1 mps 584 mmHg 76%
    20:00 +14°C° 0 mm 1 mps 584 mmHg 79%
    21:00 +13°C° 0 mm 1 mps 584 mmHg 77%
    22:00 +13°C° 0 mm 1 mps 584 mmHg 75%
    23:00 +13°C° 0 mm 1 mps 584 mmHg 72%

    Tomorrow, 19 February, Tuesday

    Time Temperature Precipitation Wind Pressure Humidity
    00:00 +13°C° 0 mm 1 mps 583 mmHg 72%
    01:00 +12°C° 0 mm 1 mps 583 mmHg 73%
    02:00 +12°C° 0 mm 1 mps 582 mmHg 73%
    03:00 +12°C° 0 mm 2 mps 582 mmHg 73%
    04:00 +12°C° 0 mm 2 mps 582 mmHg 73%
    05:00 +10°C° 0 mm 2 mps 582 mmHg 74%
    06:00 +13°C° 0 mm 2 mps 583 mmHg 67%
    07:00 +15°C° 0 mm 2 mps 584 mmHg 60%
    08:00 +17°C° 0 mm 2 mps 586 mmHg 54%
    09:00 +19°C° 0 mm 2 mps 586 mmHg 47%
    10:00 +21°C° 0 mm 3 mps 587 mmHg 41%
    11:00 +24°C° 0 mm 3 mps 588 mmHg 35%
    12:00 +24°C° 0 mm 3 mps 587 mmHg 33%
    13:00 +23°C° 0 mm 4 mps 586 mmHg 31%
    14:00 +23°C° 0 mm 4 mps 585 mmHg 29%
    15:00 +22°C° 0 mm 3 mps 585 mmHg 34%
    16:00 +20°C° 0 mm 3 mps 584 mmHg 39%
    17:00 +18°C° 0 mm 2 mps 583 mmHg 44%
    18:00 +17°C° 0 mm 3 mps 583 mmHg 42%
    19:00 +16°C° 0 mm 3 mps 582 mmHg 40%
    20:00 +14°C° 0 mm 3 mps 582 mmHg 37%
    21:00 +13°C° 0 mm 3 mps 582 mmHg 37%
    22:00 +13°C° 0 mm 3 mps 582 mmHg 37%
    23:00 +13°C° 0 mm 3 mps 582 mmHg 38%

    Day after tomorrow, 20 February, Wednesday

    Time Temperature Precipitation Wind Pressure Humidity
    00:00 +13°C° 0 mm 3 mps 581 mmHg 39%
    01:00 +12°C° 0 mm 3 mps 581 mmHg 41%
    02:00 +12°C° 0 mm 3 mps 580 mmHg 43%
    03:00 +12°C° 0 mm 3 mps 580 mmHg 45%
    04:00 +11°C° 0 mm 3 mps 580 mmHg 46%
    05:00 +11°C° 0 mm 3 mps 580 mmHg 48%
    06:00 +13°C° 0 mm 3 mps 581 mmHg 45%
    07:00 +16°C° 0 mm 3 mps 583 mmHg 42%
    08:00 +17°C° 0 mm 2 mps 584 mmHg 39%
    09:00 +20°C° 0 mm 2 mps 585 mmHg 35%
    10:00 +23°C° 0 mm 2 mps 586 mmHg 31%
    11:00 +25°C° 0 mm 1 mps 587 mmHg 27%
    12:00 +24°C° 0 mm 2 mps 586 mmHg 29%
    13:00 +24°C° 0 mm 2 mps 585 mmHg 32%
    14:00 +23°C° 0 mm 2 mps 584 mmHg 34%
    15:00 +20°C° 0 mm 2 mps 583 mmHg 42%
    16:00 +19°C° 0 mm 2 mps 582 mmHg 50%
    17:00 +17°C° 0 mm 2 mps 582 mmHg 59%
    18:00 +16°C° 0 mm 2 mps 582 mmHg 62%
    19:00 +14°C° 0 mm 1 mps 582 mmHg 65%
    20:00 +13°C° 0 mm 1 mps 581 mmHg 69%
    21:00 +12°C° 0 mm 1 mps 581 mmHg 63%
    22:00 +12°C° 0 mm 1 mps 581 mmHg 57%
    23:00 +12°C° 0 mm 2 mps 581 mmHg 52%

    21 February, Thursday

    Time Temperature Precipitation Wind Pressure Humidity
    00:00 +10°C° 0 mm 2 mps 581 mmHg 50%
    01:00 +10°C° 0 mm 2 mps 581 mmHg 48%
    02:00 +10°C° 0 mm 2 mps 580 mmHg 46%
    03:00 +10°C° 0 mm 2 mps 580 mmHg 45%
    04:00 +9°C° 0 mm 2 mps 580 mmHg 45%
    05:00 +9°C° 0 mm 2 mps 580 mmHg 44%
    06:00 +12°C° 0 mm 2 mps 582 mmHg 42%
    07:00 +14°C° 0 mm 2 mps 583 mmHg 40%
    08:00 +17°C° 0 mm 2 mps 585 mmHg 38%
    09:00 +19°C° 0 mm 2 mps 585 mmHg 35%
    10:00 +21°C° 0 mm 2 mps 586 mmHg 32%
    11:00 +23°C° 0 mm 2 mps 587 mmHg 29%
    12:00 +24°C° 0 mm 2 mps 586 mmHg 31%
    13:00 +24°C° 0 mm 2 mps 585 mmHg 33%
    14:00 +24°C° 0 mm 2 mps 584 mmHg 34%
    15:00 +21°C° 0 mm 2 mps 584 mmHg 40%
    16:00 +19°C° 0 mm 2 mps 583 mmHg 46%
    17:00 +19°C° 0 mm 1 mps 582 mmHg 52%
    18:00 +16°C° 0 mm 2 mps 582 mmHg 49%
    19:00 +15°C° 0 mm 2 mps 582 mmHg 46%
    20:00 +14°C° 0 mm 2 mps 582 mmHg 44%
    21:00 +13°C° 0 mm 2 mps 582 mmHg 41%
    22:00 +13°C° 0 mm 2 mps 582 mmHg 37%
    23:00 +13°C° 0 mm 2 mps 582 mmHg 34%

    22 February, Friday

    Time Temperature Precipitation Wind Pressure Humidity
    00:00 +12°C° 0 mm 2 mps 582 mmHg 35%
    01:00 +12°C° 0 mm 2 mps 582 mmHg 35%
    02:00 +12°C° 0 mm 2 mps 581 mmHg 36%
    03:00 +12°C° 0 mm 2 mps 581 mmHg 37%
    04:00 +12°C° 0 mm 2 mps 582 mmHg 37%
    05:00 +10°C° 0 mm 2 mps 582 mmHg 38%
    06:00 +13°C° 0 mm 2 mps 583 mmHg 36%
    07:00 +16°C° 0 mm 1 mps 585 mmHg 34%
    08:00 +19°C° 0 mm 1 mps 586 mmHg 32%
    09:00 +21°C° 0 mm 1 mps 587 mmHg 31%
    10:00 +22°C° 0 mm 1 mps 587 mmHg 31%
    11:00 +24°C° 0 mm 1 mps 588 mmHg 30%
    12:00 +24°C° 0 mm 2 mps 587 mmHg 34%
    13:00 +24°C° 0 mm 2 mps 586 mmHg 38%
    14:00 +24°C° 0 mm 2 mps 586 mmHg 42%
    15:00 +21°C° 0.2 mm 2 mps 585 mmHg 51%
    16:00 +19°C° 0.2 mm 2 mps 584 mmHg 60%
    17:00 +19°C° 0.2 mm 1 mps 584 mmHg 70%
    18:00 +18°C° 0 mm 1 mps 584 mmHg 68%
    19:00 +16°C° 0 mm 1 mps 584 mmHg 66%
    20:00 +15°C° 0 mm 1 mps 584 mmHg 64%
    21:00 +14°C° 0 mm 2 mps 583 mmHg 56%
    22:00 +14°C° 0 mm 2 mps 583 mmHg 49%
    23:00 +14°C° 0 mm 2 mps 583 mmHg 42%

    23 February, Saturday

    Time Temperature Precipitation Wind Pressure Humidity
    00:00 +14°C° 0 mm 2 mps 583 mmHg 41%
    01:00 +13°C° 0 mm 2 mps 582 mmHg 40%
    02:00 +13°C° 0 mm 2 mps 582 mmHg 39%
    03:00 +13°C° 0 mm 2 mps 582 mmHg 41%
    04:00 +13°C° 0 mm 2 mps 582 mmHg 44%
    05:00 +13°C° 0 mm 2 mps 583 mmHg 46%
    06:00 +15°C° 0 mm 2 mps 584 mmHg 43%
    07:00 +18°C° 0 mm 1 mps 585 mmHg 41%
    08:00 +20°C° 0 mm 1 mps 587 mmHg 38%
    09:00 +21°C° 0 mm 1 mps 587 mmHg 37%
    10:00 +23°C° 0 mm 1 mps 588 mmHg 35%
    11:00 +25°C° 0 mm 2 mps 588 mmHg 34%
    12:00 +24°C° 0 mm 2 mps 587 mmHg 36%
    13:00 +24°C° 0 mm 2 mps 586 mmHg 38%
    14:00 +24°C° 0 mm 2 mps 586 mmHg 40%
    15:00 +21°C° 0 mm 2 mps 585 mmHg 48%
    16:00 +19°C° 0 mm 2 mps 584 mmHg 56%
    17:00 +19°C° 0 mm 1 mps 583 mmHg 65%
    18:00 +18°C° 0 mm 1 mps 584 mmHg 65%
    19:00 +16°C° 0 mm 1 mps 584 mmHg 65%
    20:00 +15°C° 0 mm 1 mps 584 mmHg 66%
    21:00 +15°C° 0 mm 1 mps 584 mmHg 62%
    22:00 +15°C° 0 mm 1 mps 584 mmHg 58%
    23:00 +15°C° 0 mm 2 mps 584 mmHg 54%
    Show more